CW5255 Weather Reports


time (UTC)temp
C
wind
direction
speed
KPH
gust
KPH
rain 1hr
cm
rain 24hr
cm
rain mn
cm
humidity
%
barometer
mb
20260509173838 17 122 4.8 17.7 0.00 0.00 0.00 63 1010.3
20260509173338 17 60 4.8 17.7 0.00 0.00 0.00 63 1010.5
20260509172838 17 100 6.4 17.7 0.00 0.00 0.00 63 1010.7
20260509172338 17 169 0.0 11.3 0.00 0.00 0.00 63 1010.9
20260509171838 17 102 3.2 11.3 0.00 0.00 0.00 63 1010.9
20260509171337 17 101 4.8 11.3 0.00 0.00 0.00 64 1011.0
20260509170838 17 121 8.0 11.3 0.00 0.00 0.00 64 1011.1
20260509165838 17 58 1.6 14.5 0.00 0.00 0.00 64 1011.2
20260509165337 16 55 3.2 14.5 0.00 0.00 0.00 64 1011.2
20260509164837 16 53 6.4 9.7 0.00 0.00 0.00 66 1011.2
20260509163838 16 44 3.2 9.7 0.00 0.00 0.00 64 1011.4
20260509163337 16 24 4.8 12.9 0.00 0.00 0.00 65 1011.4
20260509162837 16 82 3.2 12.9 0.00 0.00 0.00 64 1011.4
20260509162337 16 86 3.2 11.3 0.00 0.00 0.00 62 1011.2
20260509161337 17 92 11.3 14.5 0.00 0.00 0.00 63 1011.1
20260509160837 17 51 1.6 14.5 0.00 0.00 0.00 62 1011.0
20260509160337 17 111 4.8 16.1 0.00 0.00 0.00 62 1011.0
20260509155837 17 60 8.0 16.1 0.00 0.00 0.00 61 1011.0
20260509154837 17 13 4.8 14.5 0.00 0.00 0.00 62 1010.9
20260509154337 17 98 6.4 9.7 0.00 0.00 0.00 60 1011.1
20260509153837 17 89 6.4 8.0 0.00 0.00 0.00 60 1011.3
20260509153337 17 17 3.2 12.9 0.00 0.00 0.00 61 1011.3
20260509152837 17 53 6.4 12.9 0.00 0.00 0.00 60 1011.2
20260509152337 17 38 4.8 9.7 0.00 0.00 0.00 62 1011.2
20260509151837 16 101 4.8 9.7 0.00 0.00 0.00 65 1011.0
20260509151337 16 336 0.0 9.7 0.00 0.00 0.00 63 1011.1
20260509150337 16 27 6.4 12.9 0.00 0.00 0.00 64 1011.1
20260509145837 16 46 3.2 14.5 0.00 0.00 0.00 64 1011.2
20260509145337 16 13 12.9 14.5 0.00 0.00 0.00 64 1011.3
20260509144337 16 32 6.4 14.5 0.00 0.00 0.00 64 1011.2
20260509143837 15 72 6.4 14.5 0.00 0.00 0.00 65 1011.1
20260509143337 15 40 0.0 12.9 0.00 0.00 0.00 65 1011.2
20260509142837 15 360 6.4 12.9 0.00 0.00 0.00 64 1011.2
20260509142337 15 355 9.7 11.3 0.00 0.00 0.00 69 1011.3
20260509141837 14 61 9.7 9.7 0.00 0.00 0.00 68 1011.2
20260509141337 14 5 6.4 8.0 0.00 0.00 0.00 68 1011.3
20260509140837 14 53 3.2 8.0 0.00 0.00 0.00 68 1011.3
20260509140337 13 355 0.0 8.0 0.00 0.00 0.00 68 1011.4
20260509135837 13 40 1.6 8.0 0.00 0.00 0.00 69 1011.4
20260509135337 13 45 0.0 4.8 0.00 0.00 0.00 69 1011.5
20260509134837 13 45 0.0 6.4 0.00 0.00 0.00 69 1011.5
20260509133837 13 59 4.8 6.4 0.00 0.00 0.00 69 1011.3
20260509133337 13 38 3.2 6.4 0.00 0.00 0.00 69 1011.3
20260509132837 13 34 3.2 4.8 0.00 0.00 0.00 70 1011.3
20260509132336 13 20 1.6 6.4 0.00 0.00 0.00 69 1011.4
20260509131837 13 20 0.0 6.4 0.00 0.00 0.00 69 1011.3
20260509131337 13 38 0.0 6.4 0.00 0.00 0.00 70 1011.2
20260509130837 12 45 3.2 6.4 0.00 0.00 0.00 70 1011.0
20260509130337 13 26 4.8 6.4 0.00 0.00 0.00 71 1011.0
20260509125837 13 30 1.6 6.4 0.00 0.00 0.00 70 1011.1
20260509125337 13 25 4.8 6.4 0.00 0.00 0.00 71 1011.4
20260509124837 13 23 0.0 4.8 0.00 0.00 0.00 70 1011.5
20260509124337 13 349 1.6 6.4 0.00 0.00 0.00 70 1011.6
20260509123837 12 360 1.6 11.3 0.00 0.00 0.00 69 1011.3
20260509123337 13 342 1.6 11.3 0.00 0.00 0.00 68 1011.6
20260509122837 13 30 4.8 9.7 0.00 0.00 0.00 68 1011.5
20260509122337 13 21 3.2 6.4 0.00 0.00 0.00 68 1011.5
20260509121836 13 29 6.4 6.4 0.00 0.00 0.00 67 1011.6
20260509121336 12 28 1.6 4.8 0.00 0.00 0.00 68 1011.4
20260509120836 12 28 1.6 3.2 0.00 0.00 0.00 67 1011.3
20260509120336 12 28 1.6 3.2 0.00 0.00 0.00 67 1011.3
20260509115836 12 28 0.0 6.4 0.00 0.00 0.00 67 1011.4
20260509115336 12 28 3.2 6.4 0.00 0.00 0.00 66 1011.3
20260509114836 13 5 3.2 6.4 0.00 0.00 0.00 66 1011.5
20260509114336 12 343 1.6 8.0 0.00 0.00 0.00 65 1011.4
20260509113836 13 9 4.8 8.0 0.00 0.00 0.00 66 1011.5
20260509113336 13 360 0.0 3.2 0.00 0.00 0.00 66 1011.5
20260509112836 13 360 0.0 3.2 0.00 0.00 0.00 65 1011.5
20260509112337 13 360 0.0 3.2 0.00 0.00 0.00 63 1011.5
20260509111836 13 360 0.0 0.0 0.00 0.00 0.00 63 1011.5
20260509111336 13 360 0.0 0.0 0.00 0.00 0.00 63 1011.4
20260509110836 13 360 0.0 1.6 0.00 0.00 0.00 62 1011.4
20260509110336 13 360 0.0 1.6 0.00 0.00 0.00 61 1011.3
20260509105836 13 360 0.0 1.6 0.00 0.00 0.00 61 1011.4
20260509105336 13 360 0.0 4.8 0.00 0.00 0.00 60 1011.3
20260509104336 13 360 3.2 3.2 0.00 0.00 0.00 59 1011.1
20260509103836 13 360 1.6 1.6 0.00 0.00 0.00 59 1011.2
20260509102836 13 360 1.6 6.4 0.00 0.00 0.00 58 1011.2
20260509102336 13 355 1.6 8.0 0.00 0.00 0.00 58 1011.1
20260509101836 14 355 3.2 8.0 0.00 0.00 0.00 57 1011.1
20260509101336 14 16 3.2 6.4 0.00 0.00 0.00 56 1011.0
20260509100836 14 331 1.6 11.3 0.00 0.00 0.00 55 1010.7
20260509100336 14 260 1.6 11.3 0.00 0.00 0.00 54 1010.6
20260509095836 14 217 4.8 9.7 0.00 0.00 0.00 54 1010.6
20260509095336 14 264 1.6 12.9 0.00 0.00 0.00 54 1010.7
20260509094836 14 261 9.7 12.9 0.00 0.00 0.00 54 1010.8
20260509094336 14 225 8.0 8.0 0.00 0.00 0.00 54 1010.9
20260509093836 14 231 6.4 16.1 0.00 0.00 0.00 54 1010.8
20260509093336 14 254 3.2 16.1 0.00 0.00 0.00 53 1010.7
20260509092836 14 238 4.8 8.0 0.00 0.00 0.00 53 1010.8
20260509091836 14 238 4.8 14.5 0.00 0.00 0.00 53 1010.9
20260509091336 14 259 3.2 14.5 0.00 0.00 0.00 53 1010.9
20260509090836 14 226 9.7 14.5 0.00 0.00 0.00 53 1010.9
20260509090335 14 229 4.8 14.5 0.00 0.00 0.00 53 1010.8
20260509085835 14 205 3.2 16.1 0.00 0.00 0.00 53 1010.8
20260509085336 14 204 3.2 16.1 0.00 0.00 0.00 53 1011.0
20260509084836 14 226 3.2 12.9 0.00 0.00 0.00 53 1011.0
20260509083835 14 237 8.0 12.9 0.00 0.00 0.00 53 1011.0
20260509083336 14 207 6.4 16.1 0.00 0.00 0.00 53 1011.0
20260509082836 14 202 4.8 16.1 0.00 0.00 0.00 54 1011.0
20260509082335 14 249 11.3 19.3 0.00 0.00 0.00 54 1011.1
20260509081835 14 212 12.9 19.3 0.00 0.00 0.00 53 1011.0
20260509081336 14 250 19.3 19.3 0.00 0.00 0.00 54 1011.1
20260509080836 14 207 8.0 9.7 0.00 0.00 0.00 54 1011.1
20260509080336 14 215 4.8 12.9 0.00 0.00 0.00 54 1011.1
20260509075836 15 217 8.0 14.5 0.00 0.00 0.00 54 1011.3
20260509075336 15 250 11.3 14.5 0.00 0.00 0.00 53 1011.3
20260509074836 15 225 6.4 11.3 0.00 0.00 0.00 53 1011.2
20260509074336 15 203 8.0 12.9 0.00 0.00 0.00 53 1011.3
20260509073836 15 240 4.8 16.1 0.00 0.00 0.00 53 1011.3
20260509073335 15 222 6.4 16.1 0.00 0.00 0.00 53 1011.3
20260509072835 15 253 6.4 11.3 0.00 0.00 0.00 54 1011.3
20260509071835 15 227 4.8 16.1 0.00 0.00 0.00 53 1011.3
20260509071335 15 215 8.0 14.5 0.00 0.00 0.00 53 1011.4
20260509070835 15 221 3.2 14.5 0.00 0.00 0.00 53 1011.4
20260509070336 15 225 11.3 14.5 0.00 0.00 0.00 53 1011.4
20260509064835 15 221 3.2 14.5 0.00 0.00 0.00 54 1011.6
20260509064335 15 232 3.2 14.5 0.00 0.00 0.00 54 1011.5
20260509063835 15 163 3.2 14.5 0.00 0.00 0.00 54 1011.6
20260509063335 15 231 8.0 16.1 0.00 0.00 0.00 54 1011.7
20260509062835 15 202 6.4 16.1 0.00 0.00 0.00 54 1011.8
20260509062335 15 236 3.2 16.1 0.00 0.00 0.00 54 1011.8
20260509061835 15 208 3.2 16.1 0.00 0.00 0.00 54 1011.8
20260509060835 15 252 8.0 16.1 0.00 0.00 0.00 54 1012.0
20260509060335 15 214 4.8 12.9 0.00 0.00 0.00 54 1012.0
20260509055835 15 241 8.0 12.9 0.00 0.00 0.00 55 1012.1
20260509054335 15 244 4.8 11.3 0.00 0.00 0.00 55 1012.1
20260509053835 15 217 6.4 12.9 0.00 0.00 0.00 55 1012.1
20260509052835 15 214 8.0 17.7 0.00 0.00 0.00 55 1012.1
20260509051835 15 205 3.2 12.9 0.00 0.00 0.00 55 1012.0
20260509050335 14 248 4.8 11.3 0.00 0.00 0.00 55 1011.9
20260509045835 14 257 6.4 14.5 0.00 0.00 0.00 56 1011.8
20260509045335 14 240 4.8 14.5 0.00 0.00 0.00 56 1011.7
20260509044835 14 219 1.6 14.5 0.00 0.00 0.00 57 1011.7
20260509044335 13 242 14.5 14.5 0.00 0.00 0.00 57 1011.7
20260509043835 13 213 4.8 14.5 0.00 0.00 0.00 57 1011.7
20260509042835 13 234 8.0 12.9 0.00 0.00 0.00 58 1011.8
20260509042335 13 224 6.4 12.9 0.00 0.00 0.00 58 1011.9
20260509041835 13 276 6.4 8.0 0.00 0.00 0.00 58 1011.9
20260509041335 13 229 4.8 8.0 0.00 0.00 0.00 59 1011.9
20260509040835 13 237 1.6 8.0 0.00 0.00 0.00 59 1011.8
20260509040335 13 213 3.2 6.4 0.00 0.00 0.00 59 1011.8
20260509034835 12 240 3.2 8.0 0.00 0.00 0.00 60 1011.8
20260509034335 12 241 3.2 12.9 0.00 0.00 0.00 59 1011.8
20260509033834 12 252 8.0 12.9 0.00 0.00 0.00 59 1011.9
20260509033335 13 225 3.2 9.7 0.00 0.00 0.00 59 1012.0
20260509032835 13 204 1.6 6.4 0.00 0.00 0.00 58 1012.1
20260509032335 13 204 0.0 6.4 0.00 0.00 0.00 58 1012.1
20260509031835 13 277 0.0 0.0 0.00 0.00 0.00 57 1012.1
20260509031335 13 276 0.0 0.0 0.00 0.00 0.00 57 1012.1
20260509030835 13 277 0.0 1.6 0.00 0.00 0.00 58 1012.1
20260509030335 13 277 0.0 4.8 0.00 0.00 0.00 58 1012.2
20260509025834 13 277 0.0 4.8 0.00 0.00 0.00 57 1012.2
20260509025334 13 32 0.0 4.8 0.00 0.00 0.00 56 1012.2
20260509024834 14 32 3.2 4.8 0.00 0.00 0.00 55 1012.3
20260509024335 14 32 0.0 1.6 0.00 0.00 0.00 55 1012.3
20260509023834 14 32 0.0 1.6 0.00 0.00 0.00 55 1012.4
20260509023335 14 32 0.0 0.0 0.00 0.00 0.00 55 1012.3
20260509022834 14 32 0.0 0.0 0.00 0.00 0.00 55 1012.4
20260509021834 15 32 0.0 0.0 0.00 0.00 0.00 53 1012.5
20260509021334 15 32 0.0 0.0 0.00 0.00 0.00 52 1012.5
20260509020834 15 32 0.0 0.0 0.00 0.00 0.00 52 1012.5
20260509020334 15 32 0.0 0.0 0.00 0.00 0.00 52 1012.4
20260509014335 15 32 0.0 1.6 0.00 0.00 0.00 51 1012.1
20260509013834 15 32 0.0 1.6 0.00 0.00 0.00 51 1012.1
20260509013334 15 32 1.6 3.2 0.00 0.00 0.00 51 1012.2
20260509012834 15 32 0.0 3.2 0.00 0.00 0.00 51 1012.1
20260509011834 16 32 0.0 1.6 0.00 0.00 0.00 50 1012.1
20260509011334 16 32 0.0 0.0 0.00 0.00 0.00 50 1012.1
20260509010334 16 32 0.0 3.2 0.00 0.00 0.00 49 1012.1
20260509005834 17 32 0.0 3.2 0.00 0.00 0.00 49 1012.0
20260509005334 17 32 1.6 3.2 0.00 0.00 0.00 49 1012.2
20260509004834 17 32 0.0 1.6 0.00 0.00 0.00 48 1012.1
20260509003834 17 32 0.0 1.6 0.00 0.00 0.00 46 1012.1
20260509002834 18 32 0.0 3.2 0.00 0.00 0.00 45 1012.2
20260509002334 18 32 0.0 3.2 0.00 0.00 0.00 45 1012.3
20260509001834 18 32 0.0 3.2 0.00 0.00 0.00 44 1012.3
20260509000834 18 32 0.0 0.0 0.00 0.00 0.00 43 1012.1
20260508235334 19 32 1.6 4.8 0.00 0.00 0.00 40 1011.6
20260508234834 19 32 3.2 8.0 0.00 0.00 0.00 40 1011.5
20260508234334 19 28 0.0 8.0 0.00 0.00 0.00 40 1011.5
20260508233834 19 33 1.6 6.4 0.00 0.00 0.00 40 1011.5
20260508232834 19 360 6.4 6.4 0.00 0.00 0.00 42 1011.6
20260508232334 19 53 1.6 4.8 0.00 0.00 0.00 41 1011.5
20260508231834 20 48 3.2 4.8 0.00 0.00 0.00 39 1011.4
20260508231333 20 48 1.6 6.4 0.00 0.00 0.00 40 1011.5
20260508225834 20 34 1.6 8.0 0.00 0.00 0.00 39 1011.4
20260508225334 20 324 4.8 8.0 0.00 0.00 0.00 38 1011.3
20260508224834 20 44 4.8 8.0 0.00 0.00 0.00 39 1011.3
20260508224334 20 26 0.0 11.3 0.00 0.00 0.00 38 1011.3
20260508223834 20 33 4.8 11.3 0.00 0.00 0.00 38 1011.3
20260508223334 20 22 6.4 8.0 0.00 0.00 0.00 38 1011.3
20260508222834 20 45 0.0 8.0 0.00 0.00 0.00 38 1011.3
20260508222333 20 322 1.6 8.0 0.00 0.00 0.00 38 1011.3
20260508221833 20 342 3.2 6.4 0.00 0.00 0.00 37 1011.3
20260508221334 20 355 3.2 6.4 0.00 0.00 0.00 38 1011.3
20260508220834 20 245 3.2 12.9 0.00 0.00 0.00 36 1011.3
20260508220334 20 225 4.8 12.9 0.00 0.00 0.00 37 1011.3
20260508215834 20 69 6.4 9.7 0.00 0.00 0.00 35 1011.2
20260508215334 20 248 4.8 9.7 0.00 0.00 0.00 36 1011.2
20260508214833 20 249 6.4 9.7 0.00 0.00 0.00 37 1011.2
20260508214333 20 45 4.8 17.7 0.00 0.00 0.00 37 1011.3
20260508213833 20 76 1.6 17.7 0.00 0.00 0.00 36 1011.2
20260508212834 20 5 4.8 12.9 0.00 0.00 0.00 36 1011.3
20260508212333 20 355 3.2 14.5 0.00 0.00 0.00 36 1011.2
20260508211833 20 78 8.0 14.5 0.00 0.00 0.00 37 1011.4
20260508210833 20 242 4.8 12.9 0.00 0.00 0.00 35 1011.7
20260508205834 20 323 4.8 16.1 0.00 0.00 0.00 35 1011.6
20260508205333 20 309 4.8 22.5 0.00 0.00 0.00 34 1011.6
20260508204333 20 88 4.8 14.5 0.00 0.00 0.00 37 1011.7
20260508203833 20 64 8.0 14.5 0.00 0.00 0.00 35 1011.7
20260508203333 20 37 3.2 17.7 0.00 0.00 0.00 35 1011.8
20260508202833 21 209 6.4 20.9 0.00 0.00 0.00 33 1011.8
20260508202333 21 173 1.6 20.9 0.00 0.00 0.00 33 1011.9
20260508201333 21 36 3.2 16.1 0.00 0.00 0.00 32 1011.9
20260508200833 21 187 4.8 27.4 0.00 0.00 0.00 33 1011.8
20260508200333 21 217 4.8 27.4 0.00 0.00 0.00 32 1012.1
20260508194833 20 227 4.8 24.1 0.00 0.00 0.00 34 1012.1
20260508194333 20 191 6.4 24.1 0.00 0.00 0.00 33 1012.2
20260508193333 20 146 3.2 14.5 0.00 0.00 0.00 32 1012.2
20260508192833 20 238 4.8 14.5 0.00 0.00 0.00 33 1012.2
20260508192333 20 259 3.2 14.5 0.00 0.00 0.00 34 1012.3
20260508191833 20 254 6.4 19.3 0.00 0.00 0.00 32 1012.4
20260508191333 20 331 12.9 20.9 0.00 0.00 0.00 33 1012.6
20260508190833 20 182 4.8 20.9 0.00 0.00 0.00 33 1012.7
20260508190333 20 223 14.5 20.9 0.00 0.00 0.00 33 1012.6
20260508185833 20 279 12.9 19.3 0.00 0.00 0.00 33 1012.8
20260508185333 20 248 4.8 12.9 0.00 0.00 0.00 33 1012.9
20260508184833 20 252 6.4 12.9 0.00 0.00 0.00 33 1012.9
20260508184333 20 200 3.2 24.1 0.00 0.00 0.00 33 1012.9
20260508183333 20 231 11.3 17.7 0.00 0.00 0.00 33 1013.2
20260508182833 21 5 4.8 19.3 0.00 0.00 0.00 33 1013.2
20260508182333 21 194 9.7 20.9 0.00 0.00 0.00 32 1013.3
20260508181833 21 271 6.4 22.5 0.00 0.00 0.00 32 1013.3
20260508181333 21 50 11.3 27.4 0.00 0.00 0.00 31 1013.4
20260508180333 21 9 8.0 22.5 0.00 0.00 0.00 32 1013.5
20260508175833 21 28 4.8 22.5 0.00 0.00 0.00 32 1013.5
20260508175333 21 323 14.5 24.1 0.00 0.00 0.00 32 1013.8
20260508174833 21 284 12.9 24.1 0.00 0.00 0.00 32 1013.9
20260508174333 20 229 1.6 19.3 0.00 0.00 0.00 33 1014.0